Terug naar catalogus

CZ-6A DEB

ActiefSSO
NORAD 56633·DEBRIS·🇨🇳 China

Gelanceerd Nov 11, 2022 vanaf Taiyuan Satellite Launch Center

Loading…

Volgende Passages (komende 24 uur)

TLE

VerouderdSource: Space-Track

Epoch: Sep 1, 2026, 16:52 UTC

1 56633U 22151AFH 26244.70324731  .00000651  00000-0  40608-3 0  9992
2 56633  98.8796 234.3967 0074740 161.2194 199.1759 14.06883576172775

Volg CZ-6A DEB in realtime met AllMySat

Download on the App Store